Glasgow, MT

11:15 AM MST on February 20, 2018 (GMT -0700)
Wokal-Glasgow International

Weather History for KGGW - July, 2013

Change the Weather History Date:

Sunday, July 7, 2013

  Actual Average Record
Temperature  
Mean Temperature 69 °F 70 °F  
Max Temperature 82 °F 83 °F 103 °F (1894)
Min Temperature 56 °F 56 °F 43 °F (1940)
Degree Days  
Heating Degree Days 0 1  
Month to date heating degree days 0 7  
Since 1 June heating degree days 84 112  
Since 1 July heating degree days 0 7  
Cooling Degree Days 4 5  
Month to date cooling degree days 61 34  
Year to date cooling degree days 119 126  
Since 1 June cooling degree days 110 109  
Growing Degree Days 20 (Base 50)    
Moisture  
Dew Point 57 °F    
Average Humidity 67    
Maximum Humidity 93    
Minimum Humidity 40    
Precipitation  
Precipitation T in 0.07 in 1.15 in (1974)
Month to date precipitation 0.15 0.45  
Year to date precipitation 11.61 6.60  
Snow  
Snow 0.00 in 0.00 in T in (1955)
Month to date snowfall 0.0 0.0  
Since 1 June snowfall 0.0 0.0  
Since 1 July snowfall 0.0 0.0  
Snow Depth 0.00 in    
Sea Level Pressure  
Sea Level Pressure 29.91 in    
Wind  
Wind Speed 8 mph (ESE)    
Max Wind Speed 16 mph    
Max Gust Speed 28 mph    
Visibility 10 miles    
Events Rain    
T = Trace of Precipitation, MM = Missing Value Source: NWS Daily Summary

Daily Weather History Graph

Daily Weather History Graph

Search for Another Location

Airport or City:

Trip Planner

Search our weather history database for the weather conditions in past years. The results will help you decide how hot, cold, wet, or windy it might be!

Date:

Astronomy

Jul. 07, 2013 Rise Set
Actual Time 5:14 AM MDT 9:07 PM MDT
Civil Twilight 4:33 AM MDT 9:48 PM MDT
Nautical Twilight 3:38 AM MDT 10:44 PM MDT
Astronomical Twilight 2:10 AM MDT 12:09 AM MDT
Moon 4:58 AM MDT (7/7) 8:26 PM MDT (7/7)
Length of Visible Light 17h 14m
Length of Day
15h 53m
Waning Crescent, 0% of the Moon is Illuminated
Jul 7
Waning Crescent
Jul 8
New
Jul 15
First Quarter
Jul 22
Full
Jul 29
Last Quarter

Hourly Weather History & Observations

Time (MDT) Temp. Heat Index Dew Point Humidity Pressure Visibility Wind Dir Wind Speed Gust Speed Precip Events Conditions
12:53 AM 62.1 °F - 54.0 °F 75% 29.91 in 10.0 mi ENE 5.8 mph - N/A   Clear
1:53 AM 60.1 °F - 54.0 °F 80% 29.93 in 10.0 mi NE 5.8 mph - N/A   Clear
2:53 AM 60.1 °F - 55.0 °F 83% 29.93 in 10.0 mi Calm Calm - N/A   Partly Cloudy
3:53 AM 59.0 °F - 55.9 °F 90% 29.92 in 10.0 mi East 4.6 mph - 0.00 in   Scattered Clouds
4:53 AM 57.9 °F - 55.9 °F 93% 29.94 in 10.0 mi SSW 5.8 mph - N/A   Clear
5:53 AM 59.0 °F - 57.0 °F 93% 29.93 in 10.0 mi North 3.5 mph - N/A   Partly Cloudy
6:53 AM 60.1 °F - 57.9 °F 93% 29.91 in 10.0 mi East 5.8 mph - 0.00 in   Mostly Cloudy
7:53 AM 64.9 °F - 57.0 °F 75% 29.93 in 10.0 mi ESE 3.5 mph - N/A   Clear
8:53 AM 68.0 °F - 57.9 °F 70% 29.95 in 10.0 mi SE 8.1 mph - N/A   Clear
9:53 AM 73.0 °F - 57.0 °F 57% 29.95 in 10.0 mi SE 9.2 mph - N/A   Clear
10:53 AM 73.9 °F - 55.9 °F 53% 29.95 in 10.0 mi SSE 8.1 mph - N/A   Clear
11:53 AM 73.9 °F - 55.9 °F 53% 29.95 in 10.0 mi SSE 6.9 mph - N/A   Clear
12:53 PM 77.0 °F - 54.0 °F 45% 29.94 in 10.0 mi Variable 5.8 mph - N/A   Scattered Clouds
1:53 PM 79.0 °F - 54.0 °F 42% 29.93 in 10.0 mi South 6.9 mph - N/A   Mostly Cloudy
2:53 PM 75.9 °F - 55.0 °F 48% 29.92 in 10.0 mi SE 8.1 mph - 0.00 in Rain Light Rain
3:53 PM 81.0 °F 80.7 °F 55.0 °F 41% 29.90 in 10.0 mi South 5.8 mph - 0.00 in   Partly Cloudy
4:53 PM 82.0 °F 81.6 °F 55.9 °F 41% 29.88 in 10.0 mi SE 12.7 mph - N/A   Scattered Clouds
5:53 PM 82.0 °F 81.4 °F 55.0 °F 39% 29.86 in 10.0 mi ESE 13.8 mph 17.3 mph N/A   Mostly Cloudy
6:53 PM 79.0 °F - 55.9 °F 45% 29.86 in 10.0 mi ESE 12.7 mph - N/A   Overcast
7:53 PM 78.1 °F - 57.9 °F 50% 29.86 in 10.0 mi ESE 11.5 mph - N/A   Partly Cloudy
8:53 PM 75.0 °F - 59.0 °F 57% 29.86 in 10.0 mi East 8.1 mph - N/A   Clear
9:53 PM 72.0 °F - 61.0 °F 68% 29.84 in 10.0 mi ESE 11.5 mph - N/A   Partly Cloudy
10:53 PM 71.1 °F - 61.0 °F 70% 29.85 in 10.0 mi ESE 10.4 mph - N/A   Clear
11:53 PM 70.0 °F - 61.0 °F 73% 29.86 in 10.0 mi NE 10.4 mph - N/A   Overcast